7 * 24
多渠道服务支持
ASTRA 1P(又名SES 24)是由全球卫星运营商SES部署的一颗地球静止轨道通信卫星,由泰雷兹集团采用Spacebus NEO平台建造,发射质量5000千克,设计寿命超15年。该卫星于2024年6月20日由猎鹰9号火箭从卡纳维拉尔角发射升空,定点于东经19度轨道位置,携带Ku波段有效载荷,主要面向欧洲地区提供广播电视分发和宽带通信服务,目前已正式投入运营服役。
(SES)
| 数据来源 | 国际轨道数据 |
| 星历时间: | 2026-09-11T05:48:47+0800 8小时前 查看轨道信息 |
| 半长轴: | 42164.588km |
| 偏心率: | 0.0002129 |
| 轨道倾角: | 0.063° |
| 近地点辐角 | 256.541° |
| 升交点赤经 | 336.098° |
| 平近点角 | 103.692° |
| 近地点: | 35777.474km |
| 远地点: | 35795.428km |
| 周期: | 1436.090分钟 |
| 每日圈数: | 1.002723 |